Location: Unspecified
(42.2600°N, 0.0000°E)
Time: 22:37:15
(UTC+00:00)

ISS - Pass Details

Date: 27 May 2019
Orbit: 408 x 418 km, 51.6° (Epoch: 18 June)

Event Time Altitude Azimuth Distance (km) Brightness Sun altitude
Rises 21:19:20 0° 305° (NW) 2,356 1.5 -16.7°
Reaches altitude 10° 21:21:51 10° 324° (NW) 1,495 0.4 -17.0°
Maximum altitude 21:24:21 19° 12° (NNE) 1,064 -1.2 -17.3°
Drops below altitude 10° 21:26:51 10° 60° (ENE) 1,498 -1.0 -17.5°
Enters shadow 21:27:22 - 65° (ENE) 1,655 -0.9 -17.6°
